Hourly Data Report for September 21, 2017

All times are specified in Local Standard Time (LST). Add 1 hour to adjust for Daylight Saving Time where and when it is observed.

KUGLUKTUK A
NUNAVUT

67°49'00.000" N
115°08'38.000" W
22.60 m
2300903
71938
YCO

Download Data

Hourly Data (September 2017)
Hourly Data Report for September 21, 2017
Temp Definition
°C
Dew Point Temp Definition
°C
Rel Hum Definition
%
Wind Dir Definition
10's deg

Wind Spd Definition
km/h
Visibility Definition
km
Stn Press Definition
kPa
Hmdx Definition


Wind Chill Definition


Weather Definition


TIME
00:00 Legend Double Dagger -0.4 -1.2 94 19 11 24.1 102.12   -4 LegendNANA
01:00 Legend Double Dagger -0.9 -1.3 97 21 14 24.1 102.12   -5 LegendNANA
02:00 Legend Double Dagger -1.4 -1.6 98 20 10 24.1 102.12   -5 Mainly Clear
03:00 Legend Double Dagger -1.9 -2.0 99 20 8 24.1 102.12   -5 LegendNANA
04:00 Legend Double Dagger -1.8 -2.2 97 20 11 24.1 102.14   -6 LegendNANA
05:00 Legend Double Dagger -2.1 -2.3 98 14 4 12.9 102.16   -4 Mostly Cloudy
06:00 Legend Double Dagger -0.5 -0.6 99 14 4 16.1 102.17   -2 LegendNANA
07:00 Legend Double Dagger -0.1 -0.5 97 15 4 24.1 102.17   -1 LegendNANA
08:00 Legend Double Dagger 0.6 -0.3 93 16 6 24.1 102.18     Mostly Cloudy
09:00 Legend Double Dagger 1.8 0.4 90 36 2 24.1 102.18     LegendNANA
10:00 Legend Double Dagger 2.8 0.1 82 36 2 24.1 102.17     LegendNANA
11:00 Legend Double Dagger 3.7 0.7 81 1 8 24.1 102.15     Mostly Cloudy
12:00 Legend Double Dagger 4.8 0.7 75 8 10 24.1 102.13     LegendNANA
13:00 Legend Double Dagger 5.4 -0.9 64 13 20 24.1 102.12     LegendNANA
14:00 Legend Double Dagger 6.1 -0.2 64 11 18 24.1 102.09     Mainly Clear
15:00 Legend Double Dagger 5.8 0.4 68 7 21 24.1 102.08     LegendNANA
16:00 Legend Double Dagger 5.5 0.8 72 6 20 24.1 102.07     LegendNANA
17:00 Legend Double Dagger 5.3 0.1 69 8 20 24.1 102.06     Mainly Clear
18:00 Legend Double Dagger 4.4 1.1 79 8 21 24.1 102.05     LegendNANA
19:00 Legend Double Dagger 3.7 1.5 85 9 17 24.1 102.04     LegendNANA
20:00 Legend Double Dagger 3.6 1.5 86 8 18 24.1 102.03     Mainly Clear
21:00 Legend Double Dagger 1.8 0.8 93 10 9 24.1 102.00     LegendNANA
22:00 Legend Double Dagger 2.8 2.0 95 8 9 24.1 101.97     LegendNANA
23:00 Legend Double Dagger 4.5 3.5 93 5 13 24.1 101.94     Mostly Cloudy

Notes on Data Quality.

Legend

  • E = Estimated
  • M = Missing
  • NA = Not Available
  • ‡ = Partner data that is not subject to review by the National Climate Archives
Date modified: